TKJ8GV LTFJ-LTFE

Flight info

Callsign TKJ8GV
Flight time 0h 56m
Altitude 28000
Route ROXUK UT409 NUMTI DCT KULAR UT44 KAVAK
Aircraft A20N/M-SDE2E3FGHIRWXY/LB1

Departure

Time 2026-04-24 14:33
Airport Istanbul Sabiha Gökçen International Airport (LTFJ)

Arrival

Time 2026-04-24 15:30
Airport Milas Bodrum International Airport (LTFE)
Time Latitude Longitude Altitude Speed Heading
2026-04-24 14:00 40.90924 29.31862 318 ft 0 kts 244°
2026-04-24 14:23 40.90932 29.31885 317 ft 4 kts 242°
2026-04-24 14:23 40.90946 29.31915 316 ft 4 kts 234°
2026-04-24 14:23 40.90958 29.31936 317 ft 0 kts 228°
2026-04-24 14:28 40.90956 29.31934 318 ft 2 kts 226°
2026-04-24 14:28 40.90945 29.31935 318 ft 1 kts 166°
2026-04-24 14:28 40.90922 29.31951 318 ft 6 kts 153°
2026-04-24 14:28 40.90872 29.31986 318 ft 10 kts 153°
2026-04-24 14:29 40.90825 29.32062 317 ft 8 kts 130°
2026-04-24 14:29 40.90776 29.32100 318 ft 0 kts 152°
2026-04-24 14:29 40.90764 29.32109 318 ft 4 kts 153°
2026-04-24 14:29 40.90725 29.32137 318 ft 8 kts 143°
2026-04-24 14:30 40.90707 29.32182 318 ft 9 kts 130°
2026-04-24 14:30 40.90636 29.32247 318 ft 7 kts 97°
2026-04-24 14:30 40.90650 29.32326 318 ft 8 kts 107°
2026-04-24 14:30 40.90602 29.32397 318 ft 12 kts 132°
2026-04-24 14:31 40.90529 29.32458 317 ft 4 kts 154°
2026-04-24 14:31 40.90519 29.32464 317 ft 0 kts 154°
2026-04-24 14:32 40.90505 29.32473 317 ft 5 kts 155°
2026-04-24 14:32 40.90454 29.32504 316 ft 10 kts 159°
2026-04-24 14:32 40.90424 29.32467 316 ft 7 kts 242°
2026-04-24 14:32 40.90419 29.32455 316 ft 3 kts 242°
2026-04-24 14:33 40.90379 29.32348 316 ft 34 kts 244°
2026-04-24 14:33 40.90164 29.31765 318 ft 104 kts 244°
2026-04-24 14:33 40.89766 29.30687 326 ft 154 kts 243°
2026-04-24 14:33 40.89279 29.29422 939 ft 152 kts 241°
2026-04-24 14:34 40.88773 29.28191 1649 ft 152 kts 242°
2026-04-24 14:34 40.88270 29.26920 2239 ft 158 kts 245°
2026-04-24 14:34 40.87766 29.25499 2616 ft 182 kts 246°
2026-04-24 14:34 40.87223 29.23872 3074 ft 206 kts 248°
2026-04-24 14:35 40.86625 29.22037 3671 ft 230 kts 247°
2026-04-24 14:35 40.85930 29.19998 3945 ft 250 kts 246°
2026-04-24 14:35 40.85156 29.17944 3996 ft 252 kts 237°
2026-04-24 14:35 40.83856 29.16423 4219 ft 259 kts 206°
2026-04-24 14:36 40.82080 29.15981 5067 ft 264 kts 175°
2026-04-24 14:36 40.80326 29.16683 6262 ft 267 kts 156°
2026-04-24 14:36 40.78599 29.17754 7192 ft 278 kts 153°
2026-04-24 14:36 40.76854 29.18902 8254 ft 284 kts 153°
2026-04-24 14:37 40.75069 29.20068 9318 ft 289 kts 154°
2026-04-24 14:37 40.73252 29.21232 10407 ft 293 kts 155°
2026-04-24 14:37 40.71350 29.22433 10980 ft 315 kts 155°
2026-04-24 14:37 40.69290 29.23719 11405 ft 339 kts 155°
2026-04-24 14:38 40.67148 29.25051 12160 ft 348 kts 155°
2026-04-24 14:38 40.64910 29.26444 13095 ft 354 kts 155°
2026-04-24 14:38 40.62663 29.27841 13992 ft 360 kts 155°
2026-04-24 14:38 40.60378 29.29261 14797 ft 366 kts 155°
2026-04-24 14:39 40.58088 29.30683 15595 ft 372 kts 155°
2026-04-24 14:39 40.55696 29.32166 16388 ft 378 kts 155°
2026-04-24 14:39 40.53301 29.33651 17162 ft 384 kts 155°
2026-04-24 14:39 40.50893 29.35142 17803 ft 390 kts 155°
2026-04-24 14:40 40.48455 29.36759 17977 ft 392 kts 149°
2026-04-24 14:40 40.46214 29.38781 17974 ft 390 kts 141°
2026-04-24 14:40 40.44096 29.41020 17971 ft 391 kts 141°
2026-04-24 14:40 40.41972 29.43256 17970 ft 391 kts 141°
2026-04-24 14:41 40.39848 29.45480 17969 ft 391 kts 141°
2026-04-24 14:41 40.37716 29.47707 17968 ft 391 kts 141°
2026-04-24 14:41 40.35581 29.49933 17966 ft 391 kts 141°
2026-04-24 14:41 40.33445 29.52156 18000 ft 393 kts 141°
2026-04-24 14:42 40.32022 29.53636 18293 ft 396 kts 141°
2026-04-24 14:42 40.29128 29.56646 19342 ft 398 kts 141°
2026-04-24 14:42 40.26952 29.58906 20058 ft 402 kts 141°
2026-04-24 14:42 40.24751 29.61191 20762 ft 406 kts 141°
2026-04-24 14:43 40.22474 29.63398 21454 ft 409 kts 149°
2026-04-24 14:43 40.19952 29.65037 22143 ft 412 kts 160°
2026-04-24 14:43 40.17182 29.66022 22813 ft 415 kts 172°
2026-04-24 14:43 40.14313 29.66608 23488 ft 419 kts 172°
2026-04-24 14:44 40.11420 29.67199 24073 ft 422 kts 172°
2026-04-24 14:44 40.08505 29.67801 24669 ft 425 kts 172°
2026-04-24 14:44 40.05572 29.68411 25237 ft 428 kts 172°
2026-04-24 14:44 40.02612 29.69029 25791 ft 431 kts 172°
2026-04-24 14:45 39.99647 29.69648 26410 ft 432 kts 173°
2026-04-24 14:45 39.96672 29.70269 26964 ft 435 kts 173°
2026-04-24 14:45 39.93671 29.70893 27454 ft 438 kts 173°
2026-04-24 14:45 39.90632 29.71094 27852 ft 438 kts 186°
2026-04-24 14:46 39.87647 29.70419 27951 ft 435 kts 199°
2026-04-24 14:46 39.85779 29.69494 27957 ft 432 kts 208°
2026-04-24 14:46 39.83172 29.67565 27955 ft 431 kts 213°
2026-04-24 14:46 39.80639 29.65496 27952 ft 427 kts 214°
2026-04-24 14:47 39.78126 29.63438 27952 ft 427 kts 214°
2026-04-24 14:47 39.74777 29.60750 27946 ft 428 kts 213°
2026-04-24 14:47 39.73054 29.59389 27947 ft 428 kts 213°
2026-04-24 14:47 39.70544 29.57423 27946 ft 428 kts 213°
2026-04-24 14:48 39.67989 29.55432 27938 ft 428 kts 213°
2026-04-24 14:48 39.65438 29.53449 27941 ft 425 kts 213°
2026-04-24 14:48 39.62893 29.51457 27939 ft 429 kts 214°
2026-04-24 14:48 39.60387 29.49350 27940 ft 428 kts 215°
2026-04-24 14:49 39.57918 29.47201 27934 ft 428 kts 216°
2026-04-24 14:49 39.55449 29.45049 27933 ft 428 kts 216°
2026-04-24 14:49 39.52971 29.42905 27936 ft 428 kts 215°
2026-04-24 14:49 39.50488 29.40772 27926 ft 427 kts 215°
2026-04-24 14:50 39.48033 29.38675 27940 ft 418 kts 215°
2026-04-24 14:50 39.45605 29.36606 27929 ft 420 kts 215°
2026-04-24 14:50 39.43184 29.34543 27933 ft 421 kts 215°
2026-04-24 14:50 39.40739 29.32463 27936 ft 421 kts 215°
2026-04-24 14:51 39.38294 29.30384 27928 ft 421 kts 215°
2026-04-24 14:51 39.35851 29.28310 27935 ft 421 kts 215°
2026-04-24 14:51 39.33410 29.26241 27935 ft 415 kts 216°
2026-04-24 14:51 39.31020 29.24220 27933 ft 409 kts 216°
2026-04-24 14:52 39.28594 29.22158 27934 ft 420 kts 216°
2026-04-24 14:52 39.26155 29.20091 27933 ft 419 kts 215°
2026-04-24 14:52 39.23722 29.18033 27928 ft 418 kts 215°
2026-04-24 14:52 39.21287 29.15976 27934 ft 419 kts 215°
2026-04-24 14:53 39.18850 29.13920 27936 ft 419 kts 215°
2026-04-24 14:53 39.16432 29.11888 27929 ft 406 kts 217°
2026-04-24 14:53 39.14114 29.09946 27935 ft 392 kts 217°
2026-04-24 14:53 39.11806 29.08000 27931 ft 401 kts 217°
2026-04-24 14:54 39.09471 29.06029 27937 ft 401 kts 217°
2026-04-24 14:54 39.07138 29.04065 27933 ft 400 kts 217°
2026-04-24 14:54 39.04801 29.02100 27936 ft 401 kts 217°
2026-04-24 14:54 39.02494 29.00162 27931 ft 402 kts 217°
2026-04-24 14:55 39.00155 28.98201 27926 ft 401 kts 217°
2026-04-24 14:55 38.97819 28.96243 27932 ft 400 kts 217°
2026-04-24 14:55 38.95473 28.94271 27933 ft 410 kts 216°
2026-04-24 14:55 38.93047 28.92233 27923 ft 420 kts 215°
2026-04-24 14:56 38.90602 28.90188 27925 ft 419 kts 215°
2026-04-24 14:56 38.88159 28.88150 27933 ft 418 kts 215°
2026-04-24 14:56 38.85714 28.86111 27907 ft 418 kts 215°
2026-04-24 14:56 38.83310 28.84121 27930 ft 401 kts 217°
2026-04-24 14:57 38.81015 28.82221 27928 ft 389 kts 217°
2026-04-24 14:57 38.78718 28.80302 27926 ft 397 kts 217°
2026-04-24 14:57 38.76429 28.78389 27926 ft 397 kts 217°
2026-04-24 14:57 38.74110 28.76457 27925 ft 397 kts 217°
2026-04-24 14:58 38.71789 28.74527 27932 ft 397 kts 217°
2026-04-24 14:58 38.69471 28.72603 27930 ft 397 kts 217°
2026-04-24 14:58 38.67168 28.70698 27933 ft 388 kts 218°
2026-04-24 14:58 38.64920 28.68841 27932 ft 384 kts 218°
2026-04-24 14:59 38.62657 28.66963 27932 ft 388 kts 218°
2026-04-24 14:59 38.60301 28.65221 27933 ft 400 kts 209°
2026-04-24 14:59 38.57635 28.64044 27930 ft 411 kts 198°
2026-04-24 14:59 38.54777 28.63591 27930 ft 418 kts 187°
2026-04-24 15:00 38.51848 28.63780 27929 ft 422 kts 182°
2026-04-24 15:00 38.48970 28.64039 27930 ft 417 kts 183°
2026-04-24 15:00 38.46099 28.64294 27935 ft 412 kts 184°
2026-04-24 15:00 38.43231 28.64533 27934 ft 415 kts 184°
2026-04-24 15:01 38.40348 28.64769 27933 ft 415 kts 184°
2026-04-24 15:01 38.37469 28.65005 27928 ft 414 kts 184°
2026-04-24 15:01 38.34591 28.65241 27930 ft 414 kts 184°
2026-04-24 15:01 38.31713 28.65478 27932 ft 414 kts 184°
2026-04-24 15:02 38.28836 28.65715 27928 ft 414 kts 184°
2026-04-24 15:02 38.25965 28.65951 27933 ft 413 kts 184°
2026-04-24 15:02 38.23095 28.66186 27931 ft 414 kts 184°
2026-04-24 15:02 38.20223 28.66423 27920 ft 413 kts 183°
2026-04-24 15:03 38.17348 28.66658 27923 ft 414 kts 183°
2026-04-24 15:03 38.14469 28.66893 27769 ft 414 kts 183°
2026-04-24 15:03 38.11596 28.67129 27507 ft 413 kts 183°
2026-04-24 15:03 38.08733 28.67363 27223 ft 412 kts 183°
2026-04-24 15:04 38.05873 28.67594 26970 ft 412 kts 183°
2026-04-24 15:04 38.03014 28.67826 26713 ft 411 kts 183°
2026-04-24 15:04 38.00201 28.68054 26453 ft 410 kts 182°
2026-04-24 15:04 37.97353 28.68286 26203 ft 410 kts 182°
2026-04-24 15:05 37.94514 28.68517 25960 ft 408 kts 182°
2026-04-24 15:05 37.91683 28.68748 25704 ft 407 kts 182°
2026-04-24 15:05 37.88860 28.68978 25455 ft 406 kts 182°
2026-04-24 15:05 37.86042 28.69206 25200 ft 405 kts 182°
2026-04-24 15:06 37.83234 28.69433 24956 ft 404 kts 182°
2026-04-24 15:06 37.80431 28.69659 24713 ft 403 kts 182°
2026-04-24 15:06 37.77626 28.69886 24168 ft 405 kts 182°
2026-04-24 15:06 37.74798 28.70111 23414 ft 408 kts 181°
2026-04-24 15:07 37.71972 28.70340 22740 ft 404 kts 181°
2026-04-24 15:07 37.69183 28.70555 22118 ft 399 kts 182°
2026-04-24 15:07 37.66429 28.70750 21500 ft 393 kts 182°
2026-04-24 15:07 37.63715 28.70937 20908 ft 388 kts 182°
2026-04-24 15:08 37.61027 28.71121 20229 ft 386 kts 181°
2026-04-24 15:08 37.58358 28.71305 19586 ft 383 kts 181°
2026-04-24 15:08 37.55735 28.71487 18947 ft 382 kts 181°
2026-04-24 15:08 37.53089 28.71671 18305 ft 380 kts 181°
2026-04-24 15:09 37.50455 28.71855 17638 ft 377 kts 181°
2026-04-24 15:09 37.47845 28.72059 17020 ft 373 kts 179°
2026-04-24 15:09 37.45271 28.72309 16435 ft 370 kts 179°
2026-04-24 15:09 37.42721 28.72569 15817 ft 366 kts 179°
2026-04-24 15:10 37.42633 28.72578 15794 ft 366 kts 179°
2026-04-24 15:14 37.41034 28.72740 15368 ft 366 kts 179°
2026-04-24 15:14 37.38541 28.72640 14830 ft 355 kts 194°
2026-04-24 15:14 37.36307 28.71504 14493 ft 336 kts 215°
2026-04-24 15:14 37.34639 28.69617 14294 ft 311 kts 233°
2026-04-24 15:15 37.33594 28.67356 14127 ft 289 kts 247°
2026-04-24 15:15 37.32799 28.65113 13959 ft 273 kts 246°
2026-04-24 15:15 37.32026 28.62961 13686 ft 269 kts 246°
2026-04-24 15:15 37.31257 28.60832 13292 ft 267 kts 246°
2026-04-24 15:16 37.30498 28.58732 12890 ft 266 kts 246°
2026-04-24 15:16 37.29734 28.56616 12467 ft 265 kts 246°
2026-04-24 15:16 37.28970 28.54502 12074 ft 265 kts 245°
2026-04-24 15:16 37.28208 28.52400 11663 ft 264 kts 245°
2026-04-24 15:17 37.27455 28.50319 11350 ft 259 kts 245°
2026-04-24 15:17 37.26709 28.48262 10959 ft 259 kts 245°
2026-04-24 15:17 37.25962 28.46207 10610 ft 257 kts 245°
2026-04-24 15:17 37.25231 28.44191 10257 ft 257 kts 245°
2026-04-24 15:18 37.24481 28.42128 9915 ft 256 kts 245°
2026-04-24 15:18 37.23744 28.40101 9563 ft 255 kts 245°
2026-04-24 15:18 37.23019 28.38109 9186 ft 254 kts 245°
2026-04-24 15:18 37.22286 28.36098 8859 ft 251 kts 244°
2026-04-24 15:19 37.21553 28.34084 8589 ft 257 kts 244°
2026-04-24 15:19 37.20806 28.32036 8339 ft 256 kts 244°
2026-04-24 15:19 37.20071 28.30019 8057 ft 253 kts 244°
2026-04-24 15:19 37.19346 28.28030 7738 ft 251 kts 244°
2026-04-24 15:20 37.18616 28.26032 7540 ft 253 kts 244°
2026-04-24 15:20 37.17878 28.24016 7380 ft 254 kts 244°
2026-04-24 15:20 37.17143 28.22009 7151 ft 251 kts 244°
2026-04-24 15:20 37.16417 28.20024 7104 ft 255 kts 244°
2026-04-24 15:21 37.15667 28.17976 7101 ft 255 kts 244°
2026-04-24 15:21 37.14937 28.15985 7099 ft 251 kts 244°
2026-04-24 15:21 37.14267 28.14030 7085 ft 237 kts 253°
2026-04-24 15:21 37.14167 28.12025 6998 ft 228 kts 280°
2026-04-24 15:22 37.14601 28.10142 6768 ft 225 kts 287°
2026-04-24 15:22 37.15066 28.08264 6482 ft 226 kts 287°
2026-04-24 15:22 37.15527 28.06378 6216 ft 226 kts 287°
2026-04-24 15:23 37.16430 28.02648 5728 ft 221 kts 287°
2026-04-24 15:23 37.17293 27.99082 5442 ft 204 kts 287°
2026-04-24 15:23 37.17697 27.97411 5223 ft 202 kts 287°
2026-04-24 15:24 37.18938 27.92414 4904 ft 198 kts 287°
2026-04-24 15:25 37.19597 27.89649 4631 ft 199 kts 287°
2026-04-24 15:25 37.20508 27.85831 3795 ft 193 kts 287°
2026-04-24 15:26 37.21642 27.81076 2790 ft 187 kts 285°
2026-04-24 15:27 37.22695 27.76657 1879 ft 157 kts 285°
2026-04-24 15:27 37.23487 27.73195 1049 ft 121 kts 283°
2026-04-24 15:28 37.24484 27.69147 260 ft 121 kts 283°
2026-04-24 15:29 37.24957 27.67169 24 ft 100 kts 283°
2026-04-24 15:30 37.25252 27.65888 15 ft 17 kts 277°
2026-04-24 15:31 37.25139 27.65683 17 ft 0 kts 104°
2026-04-24 15:32 37.25097 27.65885 17 ft 0 kts 105°
2026-04-24 15:33 37.25025 27.66162 18 ft 17 kts 109°
2026-04-24 15:33 37.24903 27.66533 17 ft 12 kts 177°
2026-04-24 15:34 37.24788 27.66503 21 ft 0 kts 165°
2026-04-24 15:35 37.24785 27.66505 20 ft 2 kts 159°
2026-04-24 15:35 37.24754 27.66582 19 ft 0 kts 107°
2026-04-24 15:35 37.24749 27.66603 19 ft 5 kts 107°
2026-04-24 15:36 37.24732 27.66647 21 ft 7 kts 141°
2026-04-24 15:36 37.24647 27.66633 20 ft 4 kts 196°
2026-04-24 15:36 37.24642 27.66632 20 ft 0 kts 196°